ホーガン彗星

474P/Hogan (2012)

English version
Home page
Updated on February 21, 2024

---------------------------------------------------------------------

・ プロフィール

・ 軌道要素

                    Epoch = 2012 July 12.0 TT
     T = 2012 June 26.48646 TT        Peri. =  13.18023
     e = 0.1885194                    Node  =  26.90806 2000.0
     q = 2.5433515 AU                 Incl. =   1.10151
       a =  3.1342109 AU   n = 0.17762813   P =   5.55 years

・ 光度変化

        m1 = 16.5 + 5 logΔ + 10.0 log r

---------------------------------------------------------------------

軌道要素は、CBET 5341に掲載されたものです。
光度グラフはComet for Windowsで作成したものです。

---------------------------------------------------------------------

Copyright(C) Seiichi Yoshida (comet@aerith.net). All rights reserved.